Location: Glencliff
(36.1226°N, 86.7183°W)
Time: 14:13:11
(UTC+00:00)

OAO 3 Copernicus - Pass Details

Date: 25 August 2019
Orbit: 694 x 705 km, 35.0° (Epoch: 16 September)

Event Time Altitude Azimuth Distance (km) Brightness Sun altitude
Rises 01:28:37 0° 257° (WSW) 3,060 8.5 -12.8°
Reaches altitude 10° 01:31:01 10° 255° (WSW) 2,142 7.6 -13.3°
Maximum altitude 01:36:01 72° 172° (S) 726 4.3 -14.2°
Enters shadow 01:39:25 21° 90° (E) 1,549 5.6 -14.8°
